Weather History for KCTJ - March, 2014

Change the Weather History Date:

Friday, March 21, 2014

  Actual Average Record
Temperature  
Mean Temperature 50 °F -  
Max Temperature 69 °F 67 °F 81 °F (1968)
Min Temperature 32 °F 42 °F 19 °F (1965)
Degree Days  
Heating Degree Days 14    
Moisture  
Dew Point 31 °F    
Average Humidity 54    
Maximum Humidity 100    
Minimum Humidity 21    
Precipitation  
Precipitation 0.00 in - - ()
Sea Level Pressure  
Sea Level Pressure 30.10 in    
Wind  
Wind Speed 1 mph (South)    
Max Wind Speed 9 mph    
Max Gust Speed 17 mph    
Visibility 10 miles    
Events      
Averages and records for this station are not official NWS values.
T = Trace of Precipitation, MM = Missing Value Source: NWS Daily Summary

Daily Weather History Graph

Daily Weather History Graph

Search for Another Location

Airport or City:

Trip Planner

Search our weather history database for the weather conditions in past years. The results will help you decide how hot, cold, wet, or windy it might be!

Date:

Astronomy

Mar. 21, 2014 Rise Set
Actual Time 7:42 AM EDT 7:52 PM EDT
Civil Twilight 7:18 AM EDT 8:17 PM EDT
Nautical Twilight 6:49 AM EDT 8:46 PM EDT
Astronomical Twilight 6:19 AM EDT 9:16 PM EDT
Moon No Moon Rise 10:47 AM EDT (3/21)
Length of Visible Light 12h 59m
Length of Day
12h 10m
Waning Gibbous, 75% of the Moon is Illuminated
Mar 21
Waning Gibbous
Mar 23
Last Quarter
Mar 30
New
Apr 7
First Quarter
Apr 15
Full

Hourly Weather History & Observations

Time (EDT) Temp. Dew Point Humidity Pressure Visibility Wind Dir Wind Speed Gust Speed Precip Events Conditions
12:13 AM 41.0 °F 32.0 °F 70% 30.11 in 10.0 mi Calm Calm - N/A   Clear
12:33 AM 41.0 °F 32.0 °F 70% 30.11 in 10.0 mi Calm Calm - N/A   Clear
12:53 AM 37.4 °F 32.0 °F 81% 30.11 in 10.0 mi Calm Calm - N/A   Clear
1:13 AM 39.2 °F 32.0 °F 75% 30.11 in 10.0 mi Calm Calm - N/A   Clear
1:33 AM 37.4 °F 32.0 °F 81% 30.11 in 10.0 mi Calm Calm - N/A   Clear
1:53 AM 37.4 °F 32.0 °F 81% 30.11 in 10.0 mi Calm Calm - N/A   Clear
2:13 AM 35.6 °F 32.0 °F 87% 30.11 in 10.0 mi Calm Calm - N/A   Clear
2:33 AM 37.4 °F 32.0 °F 81% 30.11 in - Calm Calm - N/A   Clear
2:53 AM 35.6 °F 32.0 °F 87% 30.11 in 10.0 mi Calm Calm - N/A   Clear
3:13 AM 37.4 °F 32.0 °F 81% 30.10 in 10.0 mi Calm Calm - N/A   Clear
3:33 AM 35.6 °F 32.0 °F 87% 30.10 in 10.0 mi Calm Calm - N/A   Clear
3:53 AM 35.6 °F 32.0 °F 87% 30.10 in 10.0 mi Calm Calm - N/A   Clear
4:13 AM 35.6 °F 32.0 °F 87% 30.10 in 10.0 mi Calm Calm - N/A   Clear
4:33 AM 35.6 °F 32.0 °F 87% 30.10 in 10.0 mi Calm Calm - N/A   Clear
4:53 AM 35.6 °F 32.0 °F 87% 30.10 in 10.0 mi Calm Calm - N/A   Clear
5:13 AM 35.6 °F 32.0 °F 87% 30.11 in 10.0 mi Calm Calm - N/A   Clear
5:33 AM 35.6 °F 32.0 °F 87% 30.11 in 10.0 mi Calm Calm - N/A   Clear
5:53 AM 33.8 °F 32.0 °F 93% 30.11 in 10.0 mi Calm Calm - N/A   Clear
6:13 AM 33.8 °F 32.0 °F 93% 30.10 in 10.0 mi Calm Calm - N/A   Clear
6:33 AM 33.8 °F 32.0 °F 93% 30.10 in 10.0 mi Calm Calm - N/A   Clear
6:53 AM 33.8 °F 32.0 °F 93% 30.10 in 10.0 mi Calm Calm - N/A   Clear
7:13 AM 32.0 °F 30.2 °F 93% 30.11 in 10.0 mi Calm Calm - N/A   Clear
7:33 AM 32.0 °F 32.0 °F 100% 30.13 in 10.0 mi Calm Calm - N/A   Clear
7:53 AM 33.8 °F 32.0 °F 93% 30.14 in 10.0 mi Calm Calm - N/A   Clear
8:13 AM 33.8 °F 32.0 °F 93% 30.14 in 10.0 mi Calm Calm - N/A   Clear
8:33 AM 33.8 °F 32.0 °F 93% 30.15 in 10.0 mi Calm Calm - N/A   Clear
8:53 AM 37.4 °F 33.8 °F 87% 30.15 in 10.0 mi Calm Calm - N/A   Clear
9:13 AM 41.0 °F 33.8 °F 76% 30.15 in 10.0 mi Calm Calm - N/A   Clear
9:33 AM 44.6 °F 33.8 °F 66% 30.15 in 10.0 mi Calm Calm - N/A   Clear
9:53 AM 50.0 °F 33.8 °F 54% 30.16 in 10.0 mi Calm Calm - N/A   Clear
10:13 AM 53.6 °F 32.0 °F 44% 30.16 in 10.0 mi Calm Calm - N/A   Clear
10:33 AM 55.4 °F 33.8 °F 44% 30.17 in 7.0 mi South 4.6 mph - N/A   Clear
10:53 AM 57.2 °F 32.0 °F 38% 30.18 in 10.0 mi SSE 4.6 mph - N/A   Clear
11:13 AM 59.0 °F 32.0 °F 36% 30.18 in 5.0 mi SE 4.6 mph - N/A   Haze
11:33 AM 60.8 °F 30.2 °F 31% 30.18 in 7.0 mi SE 4.6 mph - N/A   Clear
11:53 AM 60.8 °F 30.2 °F 31% 30.17 in 10.0 mi Calm Calm - N/A   Clear
12:13 PM 62.6 °F 28.4 °F 27% 30.16 in 10.0 mi ESE 4.6 mph - N/A   Clear
12:33 PM 62.6 °F 28.4 °F 27% 30.15 in 10.0 mi SE 6.9 mph - N/A   Clear
12:53 PM 62.6 °F 26.6 °F 26% 30.14 in 10.0 mi East 5.8 mph - N/A   Clear
1:13 PM 64.4 °F 28.4 °F 26% 30.14 in 10.0 mi SSE 4.6 mph - N/A   Clear
1:33 PM 64.4 °F 26.6 °F 24% 30.13 in 10.0 mi Calm Calm - N/A   Clear
1:53 PM 64.4 °F 26.6 °F 24% 30.12 in 10.0 mi South 5.8 mph - N/A   Clear
2:13 PM 66.2 °F 26.6 °F 23% 30.11 in 10.0 mi SSW 6.9 mph - N/A   Clear
2:33 PM 64.4 °F 26.6 °F 24% 30.10 in 10.0 mi SSE 4.6 mph - N/A   Clear
2:53 PM 66.2 °F 28.4 °F 24% 30.08 in 10.0 mi South 6.9 mph - N/A   Clear
3:13 PM 68.0 °F 28.4 °F 23% 30.07 in 10.0 mi SSW 5.8 mph - N/A   Clear
3:33 PM 68.0 °F 28.4 °F 23% 30.05 in 10.0 mi South 4.6 mph - N/A   Clear
3:52 PM 68.0 °F 28.4 °F 23% 30.05 in 10.0 mi Calm Calm - N/A   Clear
4:13 PM 68.0 °F 28.4 °F 23% 30.05 in 10.0 mi South 3.5 mph - N/A   Clear
4:33 PM 69.8 °F 28.4 °F 21% 30.05 in 10.0 mi SSW 3.5 mph - N/A   Clear
4:53 PM 69.8 °F 28.4 °F 21% 30.05 in 10.0 mi SSW 9.2 mph 17.3 mph N/A   Clear
5:13 PM 69.8 °F 28.4 °F 21% 30.04 in 10.0 mi SSE 6.9 mph - N/A   Clear
5:33 PM 69.8 °F 28.4 °F 21% 30.04 in 10.0 mi SSW 6.9 mph - N/A   Clear
5:53 PM 69.8 °F 28.4 °F 21% 30.04 in 10.0 mi SSW 8.1 mph - N/A   Clear
6:13 PM 69.8 °F 28.4 °F 21% 30.03 in 10.0 mi South 5.8 mph - N/A   Clear
6:33 PM 68.0 °F 28.4 °F 23% 30.03 in 10.0 mi South 6.9 mph - N/A   Clear
6:53 PM 68.0 °F 28.4 °F 23% 30.03 in 10.0 mi South 4.6 mph - N/A   Clear
7:13 PM 66.2 °F 30.2 °F 26% 30.03 in 10.0 mi South 3.5 mph - N/A   Clear
7:33 PM 64.4 °F 30.2 °F 28% 30.04 in 10.0 mi Calm Calm - N/A   Clear
7:53 PM 62.6 °F 32.0 °F 32% 30.03 in 10.0 mi SSE 3.5 mph - N/A   Clear
8:13 PM 60.8 °F 32.0 °F 34% 30.04 in 10.0 mi Calm Calm - N/A   Clear
8:33 PM 59.0 °F 32.0 °F 36% 30.05 in 10.0 mi Calm Calm - N/A   Clear
8:53 PM 57.2 °F 32.0 °F 38% 30.05 in 10.0 mi SSW 3.5 mph - N/A   Clear
9:13 PM 55.4 °F 33.8 °F 44% 30.05 in 10.0 mi Calm Calm - N/A   Clear
9:33 PM 53.6 °F 32.0 °F 44% 30.05 in 10.0 mi Calm Calm - N/A   Clear
9:53 PM 53.6 °F 35.6 °F 51% 30.06 in 10.0 mi Calm Calm - N/A   Clear
10:13 PM 51.8 °F 33.8 °F 50% 30.05 in 10.0 mi Calm Calm - N/A   Clear
10:33 PM 51.8 °F 33.8 °F 50% 30.06 in 10.0 mi Calm Calm - N/A   Clear
10:53 PM 51.8 °F 33.8 °F 50% 30.06 in 10.0 mi Calm Calm - N/A   Clear
11:13 PM 51.8 °F 33.8 °F 50% 30.05 in 10.0 mi Calm Calm - N/A   Clear
11:33 PM 51.8 °F 35.6 °F 54% 30.06 in 10.0 mi Calm Calm - N/A   Clear
11:53 PM 51.8 °F 37.4 °F 58% 30.06 in 10.0 mi Calm Calm - N/A   Clear